Regional Weather Roundup
Issued by NWS

Home | Current Version | Previous Version | Graphics & Text | Print | Product List | Glossary On
Versions: 1 2 3 4 5 6 7 8 9 10 11 12 13 14 15 16 17 18 19 20 21 22 23 24 25 26 27 28 29 30 31 32 33 34 35 36 37 38 39 40 41 42 43 44 45 46 47 48 49 50
000
ASUS43 KOAX 250410
RWRNE

WEATHER ROUNDUP FOR NEBRASKA
NATIONAL WEATHER SERVICE OMAHA NE
1100 PM CDT SUN MAY 24 2015

NOTES: SATELLITE DATA IS BEING USED TO AUGMENT CLOUD COVER ABOVE
       12000 FEET.
       "FAIR" INDICATES FEW OR NO CLOUDS BELOW 12,000 FEET WITH NO
       SIGNIFICANT WEATHER AND/OR OBSTRUCTIONS TO VISIBILITY.

  * THESE STATIONS DO NOT REPORT WEATHER SUCH AS RAIN...SNOW OR FOG.

NEZ001>004-019>022-054>056-250500-
NEBRASKA PANHANDLE

CITY           SKY/WX    TMP DP  RH WIND       PRES   REMARKS
SCOTTSBLUFF    LGT RAIN  53  50  89 NE8       29.84R
ALLIANCE       CLOUDY    52  49  89 E9        29.83R
CHADRON        LGT RAIN  57  55  93 NE10      29.84R
KIMBALL          N/A    N/A N/A N/A MISG        N/A
SIDNEY         CLOUDY    52  48  86 NE7       29.85R
$$

NEZ057>060-069>072-079>082-250500-
SOUTHWEST NEBRASKA

CITY           SKY/WX    TMP DP  RH WIND       PRES   REMARKS
NORTH PLATTE   RAIN      54  51  90 W10       29.84R
IMPERIAL       RAIN      52  49  89 NE7       29.82F
LEXINGTON      CLOUDY    61  59  93 SE3       29.82R
MCCOOK         CLOUDY    54  52  93 NW7       29.84R
OGALLALA       RAIN      52  51  97 CALM      29.83R
$$

NEZ005>010-023>029-035>040-094-250500-
NORTH CENTRAL NEBRASKA

CITY           SKY/WX    TMP DP  RH WIND       PRES   REMARKS
VALENTINE      CLOUDY    58  56  93 E8        29.82R
AINSWORTH      MOCLDY    58  58  99 E6        29.82S
BROKEN BOW     MOCLDY    58  56  93 SE3       29.80S
O`NEILL        CLOUDY    60  60  99 CALM      29.81S FOG
ORD            MOCLDY    61  58  90 SE3       29.79R
THEDFORD       CLOUDY    60  58  91 E5        29.81S
$$

NEZ041-046>049-061>064-073>077-083>087-250500-
SOUTH CENTRAL NEBRASKA

CITY           SKY/WX    TMP DP  RH WIND       PRES   REMARKS
GRAND ISLAND   MOCLDY    61  58  90 S6        29.80F
AURORA         MOCLDY    63  62  96 S6        29.81S
HASTINGS       MOCLDY    61  59  93 S6        29.80F
HEBRON         CLOUDY    63  60  90 CALM      29.81S
HOLDREGE       MOCLDY    58  56  93 SE3       29.82R
KEARNEY *      MOCLDY    57  55  94 SE5       29.82R
YORK           CLOUDY    63  61  94 SW7       29.81S
$$

NEZ011>018-030>034-042>045-250500-
NORTHEAST NEBRASKA

CITY           SKY/WX    TMP DP  RH WIND       PRES   REMARKS
NORFOLK        CLOUDY    59  58  96 CALM      29.80R
ALBION         CLOUDY    59  57  91 CALM      29.81R
BLAIR          CLOUDY    63  60  88 S6        29.78S
COLUMBUS *     CLOUDY    63  55  77 SW3       29.83R
FREMONT        CLOUDY    64  62  93 S3        29.79R
TEKAMAH        CLOUDY    64  62  93 CALM      29.77R
WAYNE          CLOUDY    59  59  99 CALM      29.79R FOG
$$

NEZ050>053-065>068-078-088>093-250500-
SOUTHEAST NEBRASKA

CITY           SKY/WX    TMP DP  RH WIND       PRES   REMARKS
LINCOLN        CLOUDY    63  60  90 SW5       29.81R
OMAHA EPPLEY   CLOUDY    67  61  81 SW6       29.78R
BEATRICE       CLOUDY    62  60  95 CALM      29.81R
FALLS CITY     CLOUDY    63  61  93 S5        29.81R
NEBRASKA CITY  CLOUDY    64  63  97 SW7       29.80R
PLATTSMOUTH    CLOUDY    64  59  85 SW5       29.79R
$$

NEZ044-045-051>053-067-250500-
OMAHA AREA

CITY           SKY/WX    TMP DP  RH WIND       PRES   REMARKS
OMAHA EPPLEY   CLOUDY    67  61  81 SW6       29.78R
BLAIR          CLOUDY    63  60  88 S6        29.78S
FREMONT        CLOUDY    64  62  93 S3        29.79R
MILLARD        CLOUDY    65  61  86 CALM      29.78S
OFFUTT AFB     CLOUDY    65  61  86 S6        29.78R
PLATTSMOUTH    CLOUDY    64  59  85 SW5       29.79R
WAHOO          FAIR      64  61  90 SW5       29.79S
$$


USA.gov is the U.S. government's official web portal to all federal, state and local government web resources and services.